Tracking 26442 objects as of 7-Dec-2022
HD Live streaming from Space Station
objects crossing your sky now

NOAA 16 DEB

Track NOAA 16 DEB now!
10-day predictions


NORAD ID: 41408
Int'l Code: 2000-055KM
Perigee: 829.6 km
Apogee: 848.1 km
Inclination: 98.8 °
Period: 101.5 minutes
Semi major axis: 7209 km
RCS: Unknown
Launch date: September 21, 2000
Source: United States (US)
Launch site: AIR FORCE WESTERN TEST RANGE (AFWTR)

Note: This is SATELLITE DEBRIS
aabbcc
Your satellite tracking list
Your tracking list is empty




NASA's NSSDC Master Catalog

Two Line Element Set (TLE):
1 41408U 00055KM  22338.44075882  .00001910  00000-0  95142-3 0  9998
2 41408  98.7724  58.5482 0012851  43.4562 316.7624 14.18115597351302
Source of the keplerian elements: AFSPC